Location: Cul de Sac
(18.0387°N, 63.0654°W)
Time: 09:25:40
(UTC+00:00)

EO 1 Delta rocket - Pass Details

Date: 29 October 2020
Orbit: 696 x 1793 km, 95.4° (Epoch: 27 November)

Event Time Altitude Azimuth Distance (km) Brightness Sun altitude
Exits shadow 23:10:42 32° 23° (NNE) 1,206 4.7 -21.7°
Maximum altitude 23:12:50 70° 99° (E) 764 3.7 -22.2°
Drops below altitude 10° 23:17:51 10° 183° (S) 2,357 6.6 -23.4°
Sets 23:20:21 0° 185° (S) 3,398 7.5 -24.0°
